| time (UTC) | temp F | wind direction | speed MPH | gust MPH | rain 1hr in | rain 24hr in | rain mn in | humidity % | barometer mb |
| 20260507033703 | 64 | 158 | 2.0 | 7.0 | 0.00 | 0.00 | 0.12 | 81 | 1007.1 |
| 20260507032602 | 64 | 180 | 3.0 | 5.0 | 0.00 | 0.00 | 0.12 | 83 | 1006.1 |
| 20260507030404 | 65 | 203 | 5.0 | 5.0 | 0.00 | 0.00 | 0.12 | 86 | 1005.8 |
| 20260507025403 | 66 | 203 | 5.0 | 6.0 | 0.00 | 0.00 | 0.12 | 85 | 1006.1 |
| 20260507021003 | 67 | 248 | 4.0 | 8.0 | 0.00 | 0.00 | 0.12 | 83 | 1005.8 |
| 20260507015903 | 68 | 225 | 4.0 | 8.0 | 0.00 | 0.00 | 0.12 | 86 | 1006.1 |
| 20260507014803 | 68 | 315 | 4.0 | 4.0 | 0.00 | 0.00 | 0.12 | 88 | 1006.1 |
| 20260507013802 | 68 | 135 | 2.0 | 4.0 | 0.00 | 0.00 | 0.12 | 88 | 1006.4 |
| 20260507012703 | 68 | 158 | 0.0 | 2.0 | 0.00 | 0.00 | 0.12 | 88 | 1006.1 |
| 20260507011603 | 68 | 180 | 2.0 | 2.0 | 0.00 | 0.00 | 0.12 | 86 | 1006.1 |
| 20260507010505 | 68 | 293 | 0.0 | 3.0 | 0.00 | 0.00 | 0.12 | 86 | 1005.8 |
| 20260507005503 | 69 | 158 | 1.0 | 3.0 | 0.00 | 0.00 | 0.12 | 86 | 1005.8 |
| 20260507004502 | 69 | 315 | 2.0 | 3.0 | 0.00 | 0.00 | 0.12 | 86 | 1006.1 |
| 20260507003302 | 69 | 45 | 2.0 | 3.0 | 0.00 | 0.00 | 0.12 | 86 | 1005.8 |
| 20260507001103 | 69 | 23 | 2.0 | 4.0 | 0.00 | 0.00 | 0.12 | 85 | 1005.4 |
| 20260506233902 | 71 | 23 | 0.0 | 1.0 | 0.00 | 0.00 | 0.12 | 83 | 1004.4 |
| 20260506231702 | 72 | 270 | 2.0 | 2.0 | 0.00 | 0.00 | 0.12 | 81 | 1004.4 |
| 20260506230604 | 72 | 180 | 2.0 | 2.0 | 0.00 | 0.00 | 0.12 | 81 | 1004.7 |
| 20260506225603 | 72 | 225 | 0.0 | 0.0 | 0.00 | 0.00 | 0.12 | 80 | 1004.4 |
| 20260506224503 | 72 | 23 | 0.0 | 3.0 | 0.00 | 0.00 | 0.12 | 80 | 1004.4 |
| 20260506223402 | 73 | 315 | 2.0 | 3.0 | 0.00 | 0.00 | 0.12 | 79 | 1004.7 |
| 20260506222305 | 74 | 23 | 1.0 | 3.0 | 0.00 | 0.00 | 0.12 | 78 | 1004.7 |
| 20260506221203 | 74 | 203 | 0.0 | 3.0 | 0.00 | 0.00 | 0.12 | 76 | 1004.1 |
| 20260506220103 | 75 | 23 | 2.0 | 3.0 | 0.00 | 0.00 | 0.12 | 75 | 1004.4 |
| 20260506215102 | 76 | 90 | 1.0 | 2.0 | 0.00 | 0.00 | 0.12 | 75 | 1004.4 |
| 20260506212902 | 75 | 180 | 2.0 | 3.0 | 0.00 | 0.00 | 0.12 | 75 | 1004.4 |
| 20260506211803 | 75 | 0 | 5.0 | 5.0 | 0.00 | 0.00 | 0.12 | 75 | 1004.1 |
| 20260506210704 | 75 | 180 | 2.0 | 4.0 | 0.00 | 0.00 | 0.12 | 75 | 1004.4 |
| 20260506205702 | 76 | 135 | 3.0 | 5.0 | 0.00 | 0.00 | 0.12 | 74 | 1003.7 |
| 20260506204602 | 77 | 23 | 2.0 | 4.0 | 0.00 | 0.00 | 0.12 | 71 | 1004.1 |
| 20260506203503 | 79 | 338 | 3.0 | 4.0 | 0.00 | 0.00 | 0.12 | 70 | 1004.1 |
| 20260506202403 | 79 | 23 | 2.0 | 5.0 | 0.00 | 0.00 | 0.12 | 70 | 1004.1 |
| 20260506200204 | 78 | 23 | 4.0 | 6.0 | 0.00 | 0.00 | 0.12 | 70 | 1004.4 |
| 20260506195202 | 76 | 248 | 3.0 | 4.0 | 0.00 | 0.00 | 0.12 | 74 | 1004.4 |
| 20260506194103 | 77 | 158 | 1.0 | 5.0 | 0.00 | 0.00 | 0.12 | 71 | 1004.1 |
| 20260506192003 | 76 | 225 | 2.0 | 5.0 | 0.00 | 0.00 | 0.12 | 71 | 1004.7 |
| 20260506184703 | 72 | 90 | 4.0 | 6.0 | 0.00 | 0.00 | 0.12 | 80 | 1005.1 |
| 20260506182503 | 70 | 68 | 3.0 | 6.0 | 0.00 | 0.00 | 0.12 | 83 | 1005.1 |
| 20260506181402 | 69 | 225 | 4.0 | 6.0 | 0.00 | 0.00 | 0.12 | 83 | 1005.1 |
| 20260506175305 | 68 | 248 | 2.0 | 7.0 | 0.00 | 0.00 | 0.12 | 86 | 1005.4 |
| 20260506174203 | 67 | 0 | 3.0 | 5.0 | 0.00 | 0.00 | 0.12 | 88 | 1005.4 |
| 20260506173103 | 67 | 45 | 5.0 | 7.0 | 0.00 | 0.00 | 0.12 | 88 | 1005.4 |
| 20260506163503 | 64 | 23 | 3.0 | 7.0 | 0.00 | 0.00 | 0.12 | 93 | 1006.1 |
| 20260506162403 | 63 | 203 | 2.0 | 4.0 | 0.00 | 0.00 | 0.12 | 96 | 1006.8 |
| 20260506161302 | 63 | 338 | 1.0 | 3.0 | 0.00 | 0.00 | 0.12 | 96 | 1006.8 |
| 20260506160203 | 63 | 23 | 0.0 | 3.0 | 0.00 | 0.00 | 0.12 | 96 | 1007.5 |
| 20260506153903 | 63 | 45 | 2.0 | 4.0 | 0.01 | 0.00 | 0.11 | 96 | 1006.8 |
| 20260506152903 | 63 | 68 | 3.0 | 3.0 | 0.01 | 0.00 | 0.11 | 96 | 1007.5 |
| 20260506151803 | 63 | 0 | 1.0 | 3.0 | 0.01 | 0.00 | 0.11 | 96 | 1007.5 |
| 20260506150703 | 63 | 225 | 1.0 | 7.0 | 0.01 | 0.00 | 0.11 | 96 | 1007.1 |
| 20260506145702 | 63 | 315 | 2.0 | 4.0 | 0.05 | 0.00 | 0.10 | 96 | 1008.1 |
| 20260506144603 | 63 | 45 | 0.0 | 3.0 | 0.03 | 0.00 | 0.08 | 95 | 1007.5 |
| 20260506143502 | 63 | 23 | 1.0 | 8.0 | 0.02 | 0.00 | 0.07 | 95 | 1007.5 |
| 20260506142402 | 63 | 23 | 1.0 | 6.0 | 0.01 | 0.00 | 0.06 | 95 | 1007.1 |
| 20260506141303 | 63 | 45 | 3.0 | 3.0 | 0.01 | 0.00 | 0.06 | 95 | 1007.5 |
| 20260506133803 | 64 | 23 | 2.0 | 5.0 | 0.02 | 0.00 | 0.02 | 91 | 1007.8 |
| 20260506132703 | 65 | 293 | 2.0 | 4.0 | 0.00 | 0.00 | 0.00 | 88 | 1007.8 |
| 20260506131603 | 65 | 270 | 0.0 | 4.0 | 0.00 | 0.00 | 0.00 | 86 | 1007.8 |
| 20260506130503 | 66 | 225 | 1.0 | 3.0 | 0.00 | 0.00 | 0.00 | 85 | 1007.1 |
| 20260506125403 | 66 | 158 | 3.0 | 3.0 | 0.00 | 0.00 | 0.00 | 85 | 1007.1 |
| 20260506124302 | 65 | 0 | 2.0 | 4.0 | 0.00 | 0.00 | 0.00 | 85 | 1007.5 |
| 20260506123203 | 65 | 23 | 3.0 | 5.0 | 0.00 | 0.00 | 0.00 | 83 | 1007.5 |
| 20260506122202 | 66 | 45 | 2.0 | 4.0 | 0.00 | 0.00 | 0.00 | 81 | 1008.1 |
| 20260506121102 | 67 | 45 | 3.0 | 6.0 | 0.00 | 0.00 | 0.00 | 80 | 1007.8 |
| 20260506120004 | 68 | 338 | 3.0 | 5.0 | 0.00 | 0.00 | 0.00 | 78 | 1007.8 |
| 20260506115002 | 68 | 23 | 1.0 | 3.0 | 0.00 | 0.00 | 0.00 | 78 | 1007.8 |
| 20260506113903 | 68 | 90 | 3.0 | 6.0 | 0.00 | 0.00 | 0.00 | 78 | 1007.1 |
| 20260506112803 | 68 | 23 | 1.0 | 4.0 | 0.00 | 0.00 | 0.00 | 78 | 1007.1 |
| 20260506110603 | 67 | 45 | 4.0 | 5.0 | 0.00 | 0.00 | 0.00 | 79 | 1007.1 |
| 20260506105503 | 67 | 23 | 2.0 | 4.0 | 0.00 | 0.00 | 0.00 | 80 | 1007.1 |
| 20260506104502 | 66 | 23 | 1.0 | 3.0 | 0.00 | 0.00 | 0.00 | 81 | 1007.1 |
| 20260506103403 | 65 | 315 | 3.0 | 4.0 | 0.00 | 0.00 | 0.00 | 81 | 1006.8 |
| 20260506102403 | 64 | 0 | 2.0 | 3.0 | 0.00 | 0.00 | 0.00 | 81 | 1006.8 |
| 20260506101303 | 64 | 45 | 2.0 | 3.0 | 0.00 | 0.00 | 0.00 | 81 | 1006.8 |
| 20260506100203 | 64 | 23 | 1.0 | 3.0 | 0.00 | 0.00 | 0.00 | 81 | 1006.8 |
| 20260506095003 | 65 | 23 | 1.0 | 3.0 | 0.00 | 0.00 | 0.00 | 81 | 1006.8 |
| 20260506093902 | 65 | 23 | 2.0 | 4.0 | 0.00 | 0.00 | 0.00 | 81 | 1006.8 |
| 20260506092803 | 65 | 23 | 2.0 | 5.0 | 0.00 | 0.00 | 0.00 | 80 | 1007.1 |
| 20260506091702 | 66 | 45 | 1.0 | 4.0 | 0.00 | 0.00 | 0.00 | 79 | 1006.8 |
| 20260506085503 | 67 | 68 | 2.0 | 6.0 | 0.00 | 0.00 | 0.00 | 76 | 1007.1 |
| 20260506084403 | 67 | 0 | 2.0 | 4.0 | 0.00 | 0.00 | 0.00 | 76 | 1007.1 |
| 20260506083403 | 67 | 23 | 1.0 | 4.0 | 0.00 | 0.00 | 0.00 | 75 | 1007.1 |
| 20260506082305 | 67 | 315 | 2.0 | 4.0 | 0.00 | 0.00 | 0.00 | 75 | 1007.1 |
| 20260506081203 | 68 | 270 | 2.0 | 4.0 | 0.00 | 0.00 | 0.00 | 74 | 1006.4 |
| 20260506072803 | 69 | 90 | 2.0 | 3.0 | 0.00 | 0.00 | 0.00 | 70 | 1007.1 |
| 20260506062103 | 71 | 23 | 1.0 | 3.0 | 0.00 | 0.00 | 0.00 | 65 | 1007.1 |
| 20260506061003 | 70 | 315 | 5.0 | 6.0 | 0.00 | 0.00 | 0.00 | 65 | 1007.1 |
| 20260506050503 | 72 | 90 | 2.0 | 4.0 | 0.00 | 0.00 | 0.00 | 61 | 1007.5 |
| 20260506044402 | 71 | 23 | 2.0 | 6.0 | 0.00 | 0.00 | 0.00 | 61 | 1007.5 |
| 20260506043302 | 71 | 45 | 2.0 | 6.0 | 0.00 | 0.00 | 0.00 | 61 | 1007.8 |
| 20260506042202 | 70 | 315 | 1.0 | 5.0 | 0.00 | 0.00 | 0.00 | 63 | 1007.5 |
| 20260506041103 | 69 | 113 | 0.0 | 4.0 | 0.00 | 0.00 | 0.00 | 65 | 1007.5 |